TIANGONG-2 (41765 NORAD) Tracking and Keplerian Element Data

This shows tracking and keplerian element data for the satellite.

Feedback or suggestion? Click here.




ElementValue
Catalog41765
NameTIANGONG-2
Epoch Orbit16206
Epoch Day200.28161137
Epoch Year2019
RAAN135.0246
Inclination42.7846
Eccentricity0.0143359
Argument of Perigee272.5645
Mean Anonmoly218.4707
Mean Motion15.97835923
Decay Rate0.00235737
L11 41765U 16057A 19200.28161137 .00235737 81559-5 15236-3 0 9993
L22 41765 42.7846 135.0246 0143359 272.5645 218.4707 15.97835923162069



Live tracking and technical data element details for TIANGONG-2 (NORAD 41765). TIANGONG-2 can be tracked NOW for your location showing map with azimuth and elevation plus other details from your city location.







IsCatalogInMostPopularTable: catalog: 41765, numindb: 759
Update: records affected: 1



GetName: 41765 TIANGONG-2

Hit Count: updated at: Fri, 19 Apr 2024 11:15:30 GMT